Location: Theodore Roosevelt National Park
(46.9990°N, 103.4631°W)
Time: 07:55:59
(UTC-06:00)

Iridium 37 - Visible Passes

Search period start: 23 August 2017 00:00
Search period end: 02 September 2017 00:00
Orbit: 776 x 779 km, 86.4° (Epoch: 22 August)

Date Brightness Start Highest point End Pass type
(mag) Time Alt. Az. Time Alt. Az. Time Alt. Az.
23 Aug 6.4 21:24:12 24° ESE 21:26:09 31° E 21:30:42 10° NNE visible
23 Aug 6.8 23:04:39 26° WSW 23:06:46 36° WNW 23:11:36 10° NNW visible
24 Aug 7.0 20:50:33 14° ESE 20:52:55 18° ENE 20:56:23 10° NE visible
24 Aug 5.8 22:31:00 35° SSW 22:33:06 63° W 22:38:18 10° N visible
25 Aug 7.5 20:19:17 10° ENE 20:19:49 10° ENE 20:20:21 10° ENE visible
25 Aug 5.4 21:57:19 35° SSE 21:59:33 75° E 22:04:47 10° N visible
25 Aug 8.0 23:37:46 10° WSW 23:40:54 16° WNW 23:44:04 10° NNW visible
26 Aug 5.9 21:23:37 25° SE 21:26:07 43° E 21:31:02 10° NNE visible
26 Aug 7.3 23:04:03 16° WSW 23:07:01 27° WNW 23:11:25 10° NNW visible
27 Aug 6.6 20:49:52 15° SE 20:52:49 25° E 20:57:01 10° NNE visible
27 Aug 6.4 22:30:20 23° SW 22:33:16 45° W 22:38:17 10° N visible
28 Aug 7.2 20:16:52 10° ESE 20:19:38 15° ENE 20:22:25 10° NE visible
28 Aug 5.6 21:56:33 25° S 21:59:39 79° W 22:04:54 10° N visible
28 Aug 8.3 23:39:41 10° W 23:41:17 11° WNW 23:42:55 10° NW visible
29 Aug 5.5 21:22:46 21° SSE 21:26:09 60° E 21:31:17 10° N visible
29 Aug 7.8 23:03:35 10° WSW 23:07:19 20° WNW 23:11:04 10° NNW visible
30 Aug 6.2 20:48:55 14° SE 20:52:46 34° E 20:57:26 10° NNE visible
30 Aug 7.1 22:29:21 13° SW 22:33:28 33° WNW 22:38:10 10° NNW visible
31 Aug 6.9 20:15:46 10° SE 20:19:31 20° ENE 20:23:15 10° NNE visible
31 Aug 6.1 21:55:27 14° SSW 21:59:46 56° W 22:04:56 10° N visible
01 Sep 5.4 21:21:29 13° S 21:26:12 84° E 21:31:27 10° N visible
01 Sep 8.2 23:04:56 10° W 23:07:39 14° WNW 23:10:24 10° NW visible
